Osceola, WI

2:00 PM CDT on May 28, 2017 (GMT -0500)
Simenstad Municipal

Weather History for KOEO - June, 2014

Change the Weather History Date:

Thursday, June 5, 2014

  Actual Average (KANE) Record (KANE)
Temperature  
Mean Temperature 68 °F -  
Max Temperature 77 °F 70 °F 84 °F (1999)
Min Temperature 58 °F 52 °F 42 °F (2002)
Cooling Degree Days 2    
Growing Degree Days 18 (Base 50)    
Moisture  
Dew Point 57 °F    
Average Humidity 72    
Maximum Humidity 99    
Minimum Humidity 38    
Precipitation  
Precipitation 0.02 in - - ()
Sea Level Pressure  
Sea Level Pressure 29.92 in    
Wind  
Wind Speed 7 mph (South)    
Max Wind Speed 22 mph    
Max Gust Speed 28 mph    
Visibility 10 miles    
Events Rain    
Averages and records for this station are not official NWS values.
T = Trace of Precipitation, MM = Missing Value Source: NWS Daily Summary

Daily Weather History Graph

Daily Weather History Graph

Search for Another Location

Airport or City:

Trip Planner

Search our weather history database for the weather conditions in past years. The results will help you decide how hot, cold, wet, or windy it might be!

Date:

Astronomy

Jun. 05, 2014 Rise Set
Actual Time 5:24 AM CDT 8:54 PM CDT
Civil Twilight 4:47 AM CDT 9:31 PM CDT
Nautical Twilight 3:58 AM CDT 10:20 PM CDT
Astronomical Twilight 2:54 AM CDT 11:24 PM CDT
Moon 12:57 PM CDT (6/5) 1:08 AM CDT (6/5)
Length of Visible Light 16h 44m
Length of Day
15h 30m
Waxing Crescent, 49% of the Moon is Illuminated
Jun 5
Waxing Crescent
Jun 5
First Quarter
Jun 12
Full
Jun 19
Last Quarter
Jun 27
New

Hourly Weather History & Observations

Time (CDT) Temp. Dew Point Humidity Pressure Visibility Wind Dir Wind Speed Gust Speed Precip Events Conditions
12:15 AM 64.8 °F 53.6 °F 67% 29.94 in 10.0 mi East 6.9 mph - N/A   Mostly Cloudy
12:35 AM 64.2 °F 53.6 °F 68% 29.94 in 10.0 mi East 6.9 mph - N/A   Scattered Clouds
12:55 AM 63.5 °F 53.6 °F 70% 29.94 in 10.0 mi East 6.9 mph - N/A   Clear
1:15 AM 62.4 °F 53.6 °F 73% 29.94 in 10.0 mi ESE 3.5 mph - N/A   Clear
1:35 AM 61.9 °F 53.8 °F 75% 29.94 in 10.0 mi East 4.6 mph - N/A   Clear
1:55 AM 61.0 °F 53.6 °F 77% 29.93 in 10.0 mi East 5.8 mph - N/A   Clear
2:15 AM 59.9 °F 54.0 °F 81% 29.93 in 10.0 mi ESE 4.6 mph - N/A   Scattered Clouds
2:35 AM 59.4 °F 53.4 °F 81% 29.93 in 10.0 mi Calm Calm - N/A   Scattered Clouds
2:55 AM 59.9 °F 53.2 °F 79% 29.93 in 10.0 mi Calm Calm - N/A   Clear
3:15 AM 59.4 °F 53.1 °F 80% 29.95 in 10.0 mi Calm Calm - N/A   Scattered Clouds
3:35 AM 58.8 °F 54.1 °F 84% 29.96 in 10.0 mi Calm Calm - N/A   Mostly Cloudy
3:55 AM 58.8 °F 55.9 °F 90% 29.95 in 10.0 mi SE 4.6 mph - N/A   Overcast
4:15 AM 61.9 °F 57.2 °F 85% 29.94 in 10.0 mi SSE 4.6 mph - N/A   Scattered Clouds
4:35 AM 61.3 °F 57.2 °F 86% 29.94 in 10.0 mi SE 5.8 mph - N/A   Clear
4:55 AM 61.2 °F 57.7 °F 88% 29.94 in 10.0 mi SSE 5.8 mph - N/A   Scattered Clouds
5:15 AM 60.8 °F 58.1 °F 91% 29.94 in 10.0 mi SSE 3.5 mph - N/A   Scattered Clouds
5:35 AM 60.6 °F 58.3 °F 92% 29.94 in 10.0 mi SSE 3.5 mph - N/A   Clear
5:55 AM 61.0 °F 58.6 °F 92% 29.94 in 10.0 mi South 5.8 mph - N/A   Scattered Clouds
6:15 AM 62.1 °F 59.5 °F 91% 29.94 in 10.0 mi South 3.5 mph - N/A   Mostly Cloudy
6:35 AM 63.5 °F 59.0 °F 85% 29.94 in 10.0 mi South 4.6 mph - N/A   Overcast
6:55 AM 64.8 °F 59.4 °F 83% 29.93 in 10.0 mi SSE 5.8 mph - N/A   Mostly Cloudy
7:15 AM 65.3 °F 59.0 °F 80% 29.91 in 10.0 mi SSE 4.6 mph - N/A   Scattered Clouds
7:35 AM 66.2 °F 59.5 °F 79% 29.93 in 10.0 mi South 6.9 mph - N/A   Clear
7:55 AM 67.3 °F 59.9 °F 77% 29.94 in 10.0 mi South 5.8 mph - N/A   Clear
8:35 AM 67.8 °F 59.9 °F 76% 29.95 in 10.0 mi South 9.2 mph - N/A   Overcast
8:55 AM 68.2 °F 59.7 °F 74% 29.95 in 10.0 mi SSW 6.9 mph - N/A   Overcast
9:15 AM 68.9 °F 59.4 °F 72% 29.94 in 10.0 mi South 9.2 mph - N/A   Mostly Cloudy
9:35 AM 71.1 °F 60.4 °F 69% 29.93 in 10.0 mi South 12.7 mph 16.1 mph N/A   Scattered Clouds
9:55 AM 72.5 °F 59.0 °F 62% 29.92 in 10.0 mi South 15.0 mph - N/A   Clear
10:15 AM 72.7 °F 59.2 °F 62% 29.92 in 10.0 mi SSE 12.7 mph - N/A   Clear
10:35 AM 73.4 °F 59.0 °F 61% 29.92 in 10.0 mi SSE 11.5 mph - N/A   Scattered Clouds
10:55 AM 72.7 °F 59.0 °F 62% 29.92 in 10.0 mi SSE 13.8 mph - N/A   Mostly Cloudy
11:15 AM 73.6 °F 59.0 °F 60% 29.91 in 10.0 mi SE 12.7 mph 18.4 mph N/A   Scattered Clouds
11:35 AM 74.5 °F 56.1 °F 53% 29.91 in 10.0 mi South 16.1 mph 21.9 mph N/A   Scattered Clouds
11:55 AM 74.8 °F 55.8 °F 51% 29.91 in 10.0 mi SSW 15.0 mph 18.4 mph N/A   Scattered Clouds
12:15 PM 75.6 °F 54.9 °F 48% 29.91 in 10.0 mi South 16.1 mph 21.9 mph N/A   Scattered Clouds
12:35 PM 76.8 °F 53.2 °F 44% 29.91 in 10.0 mi South 17.3 mph 25.3 mph N/A   Clear
12:55 PM 76.6 °F 51.6 °F 42% 29.91 in 10.0 mi South 18.4 mph 24.2 mph N/A   Clear
1:15 PM 77.0 °F 52.3 °F 42% 29.91 in 10.0 mi South 13.8 mph 25.3 mph N/A   Clear
1:35 PM 76.6 °F 50.9 °F 40% 29.92 in 10.0 mi South 16.1 mph 23.0 mph N/A   Scattered Clouds
1:55 PM 77.4 °F 50.7 °F 39% 29.91 in 10.0 mi SSW 12.7 mph 18.4 mph N/A   Mostly Cloudy
2:15 PM 77.0 °F 50.4 °F 39% 29.91 in 10.0 mi SSW 12.7 mph 21.9 mph N/A   Mostly Cloudy
2:35 PM 77.0 °F 49.8 °F 38% 29.91 in 10.0 mi SSW 11.5 mph 21.9 mph N/A   Mostly Cloudy
2:55 PM 77.0 °F 50.0 °F 39% 29.91 in 10.0 mi SSW 15.0 mph 20.7 mph N/A   Overcast
3:15 PM 75.2 °F 50.4 °F 42% 29.91 in 10.0 mi South 10.4 mph - N/A   Overcast
3:35 PM 73.6 °F 52.5 °F 48% 29.91 in 10.0 mi SW 12.7 mph - N/A   Overcast
3:55 PM 69.8 °F 57.9 °F 66% 29.92 in 10.0 mi West 21.9 mph 26.5 mph N/A   Overcast
4:15 PM 68.0 °F 59.0 °F 73% 29.92 in 10.0 mi WSW 16.1 mph 27.6 mph N/A   Mostly Cloudy
4:35 PM 66.4 °F 58.5 °F 76% 29.91 in 10.0 mi SW 8.1 mph - N/A Rain Light Rain
4:55 PM 66.6 °F 56.8 °F 71% 29.88 in 10.0 mi SSW 9.2 mph - N/A Rain Light Rain
5:15 PM 66.4 °F 57.0 °F 72% 29.85 in 10.0 mi ESE 6.9 mph - N/A   Mostly Cloudy
5:35 PM 67.6 °F 59.4 °F 75% 29.89 in 10.0 mi West 5.8 mph - N/A   Scattered Clouds
5:55 PM 70.2 °F 58.5 °F 66% 29.88 in 10.0 mi South 5.8 mph - N/A   Clear
6:15 PM 69.1 °F 57.2 °F 66% 29.87 in 10.0 mi SSE 9.2 mph - N/A   Clear
6:35 PM 70.2 °F 56.5 °F 62% 29.87 in 10.0 mi South 8.1 mph - N/A   Mostly Cloudy
6:55 PM 69.8 °F 56.3 °F 62% 29.88 in 10.0 mi South 4.6 mph - N/A   Overcast
7:15 PM 69.8 °F 56.5 °F 63% 29.88 in 10.0 mi SSW 5.8 mph - N/A   Mostly Cloudy
7:35 PM 69.4 °F 57.4 °F 65% 29.88 in 10.0 mi South 5.8 mph - N/A Rain Light Rain
7:55 PM 68.9 °F 57.2 °F 66% 29.88 in 10.0 mi South 4.6 mph - N/A   Overcast
8:15 PM 68.0 °F 58.6 °F 72% 29.89 in 3.0 mi Calm Calm - 0.02 in Rain Heavy Rain
8:35 PM 65.1 °F 60.8 °F 86% 29.89 in 10.0 mi Calm Calm - 0.02 in   Overcast
8:55 PM 64.0 °F 63.0 °F 96% 29.90 in 10.0 mi Calm Calm - 0.02 in   Overcast
9:15 PM 64.8 °F 62.4 °F 92% 29.90 in 10.0 mi Calm Calm - N/A   Overcast
9:35 PM 64.6 °F 63.3 °F 96% 29.91 in 10.0 mi Calm Calm - N/A   Overcast
9:55 PM 64.4 °F 63.7 °F 98% 29.91 in 10.0 mi Calm Calm - N/A   Overcast
10:15 PM 64.0 °F 63.5 °F 98% 29.92 in 10.0 mi Calm Calm - N/A   Overcast
10:35 PM 62.4 °F 61.7 °F 97% 29.92 in 10.0 mi Calm Calm - N/A   Overcast
10:55 PM 62.8 °F 62.6 °F 99% 29.92 in 10.0 mi Calm Calm - N/A   Overcast
11:15 PM 62.1 °F 61.7 °F 99% 29.92 in 10.0 mi East 3.5 mph - N/A Rain Light Rain
11:35 PM 62.8 °F 61.2 °F 94% 29.93 in 10.0 mi Calm Calm - N/A   Overcast
11:55 PM 62.8 °F 61.7 °F 96% 29.93 in 10.0 mi SSE 3.5 mph - N/A   Overcast